Location: Couloutre
(47.4081°N, 3.2259°E)
Time: 10:04:05
(UTC+00:00)

USA 116 - Pass Details

Date: 27 February 2020
Orbit: 405 x 834 km, 97.9° (Epoch: 18 November)

Event Time Altitude Azimuth Distance (km) Brightness Sun altitude
Rises 17:50:58 0° 21° (NNE) 2,774 7.0 -4.6°
Reaches altitude 10° 17:53:07 10° 29° (NNE) 1,936 6.2 -5.0°
Maximum altitude 17:57:07 40° 99° (E) 956 4.5 -5.7°
Drops below altitude 10° 18:01:33 10° 169° (S) 2,153 6.7 -6.4°
Sets 18:04:03 0° 177° (S) 3,127 7.6 -6.8°
